[[{"header":{"parameterUnit":"m.s-1","parameterCategory":1,"la1":30.2992,"la2":30.254,"lo1":-89.0895,"lo2":-89.0443,"dy":0.0025,"dx":0.0025,"nx":19,"ny":19,"refTime":"2026-03-08T21:00:00:Z","depth":0,"parameterNumber":2,"parameterNumberName":"U-component_of_WINDS"},"data":[0,0,0,-2.0167,-2.0167,-2.0163,-2.0163,-2.0168,-2.0168,0,0,0,0,0,0,0,0,0,0,0,-2.0174,-2.0174,-2.0167,-2.0167,-2.0163,-2.0163,-2.0168,-2.0168,0,0,0,0,0,0,0,0,0,0,0,-2.0174,-2.0174,-2.0175,-2.0167,-2.0163,-2.0163,-2.0168,-2.0167,0,0,0,0,0,0,0,0,0,0,-2.0169,-2.0182,-2.0174,-2.0175,-2.0167,-2.0163,-2.0163,-2.0167,-2.0167,-2.0174,0,-2.0181,0,-2.0175,-2.0169,-2.0169,0,0,0,-2.0162,-2.0182,-2.0175,-2.0175,-2.0167,-2.0163,-2.0164,-2.0167,-2.0167,-2.0174,-2.0181,-2.0181,-2.0175,-2.0169,-2.0169,-2.0222,-2.0222,0,0,-2.0163,-2.0177,-2.0175,-2.0176,-2.0177,-2.0164,-2.0164,-2.0167,-2.0176,-2.0181,-2.0181,-2.0175,-2.0169,-2.0169,-2.0221,-2.0222,0,0,0,-2.0166,-2.0177,-2.017,-2.0176,-2.0174,-2.0164,-2.0164,-2.0176,-2.0172,-2.0181,-2.0175,-2.0169,-2.0169,-2.0221,-2.0221,-2.0257,0,0,0,-2.0166,-2.0179,-2.0171,-2.0179,-2.0175,-2.0175,-2.0172,-2.0172,-2.0172,-2.0175,-2.0169,-2.017,-2.022,-2.0221,-2.0254,-2.027,0,0,0,-2.0172,-2.018,-2.0181,-2.018,-2.0179,-2.0175,-2.0171,-2.0172,-2.0168,-2.0169,-2.017,-2.022,-2.0221,-2.0253,-2.0267,-2.0287,0,0,0,-2.0183,-2.0213,-2.0182,-2.0214,-2.0179,-2.0197,-2.0171,-2.0184,-2.0189,-2.0169,-2.022,-2.0221,-2.0252,-2.0265,-2.0285,-2.0305,-2.0315,0,0,-2.0229,-2.022,-2.0237,-2.0209,-2.0236,-2.0196,-2.0228,-2.022,-2.0207,-2.0218,-2.0219,-2.0255,-2.0267,-2.0287,-2.0369,-2.0378,0,0,0,-2.0256,-2.0269,-2.0273,-2.0278,-2.0273,-2.0268,-2.0253,-2.025,-2.0258,-2.0216,-2.0268,-2.0275,-2.0286,-2.0294,-2.0301,-2.0309,-2.0227,-2.0226,-2.0226,-2.0341,-2.0323,-2.0351,-2.0332,-2.0338,-2.0322,-2.0324,-2.0317,-2.0298,-2.0311,-2.0313,-2.0365,-2.0376,-2.0381,-2.039,-2.0324,-2.0324,-2.0324,-2.0324,-2.0406,-2.042,-2.0394,-2.0411,-2.0392,-2.0406,-2.0392,-2.0378,-2.0388,-2.0362,-2.0371,-2.0343,-2.0391,-2.0397,-2.0326,-2.0326,-2.0326,-2.0325,-2.0325,-2.0458,-2.0462,-2.0458,-2.0462,-2.0468,-2.0449,-2.0459,-2.0442,-2.0426,-2.0435,-2.0434,-2.0434,-2.0429,-2.0436,-2.0436,-2.0437,-2.0437,-2.0437,-2.0437,-2.0513,-2.0507,-2.0518,-2.0514,-2.0515,-2.0513,-2.0498,-2.0498,-2.0493,-2.048,-2.048,-2.0458,-2.0399,-2.0384,-2.044,-2.0439,-2.0439,-2.0439,-2.0438,-2.0583,-2.0564,-2.0581,-2.0582,-2.0575,-2.0582,-2.056,-2.0561,-2.0559,-2.0564,-2.0541,-2.0501,-2.049,-2.0484,-2.0471,-2.0546,-2.0546,-2.0546,-2.0546,-2.0626,-2.0619,-2.0631,-2.0633,-2.0633,-2.0615,-2.0633,-2.0622,-2.0606,-2.0603,-2.0591,-2.0572,-2.0568,-2.0559,-2.0552,-2.0539,-2.063,-2.063,-2.063,-2.0667,-2.0659,-2.0678,-2.0663,-2.0656,-2.0651,-2.0668,-2.067,-2.065,-2.0633,-2.06,-2.0597,-2.0567,-2.0559,-2.054,-2.0529,-2.0506,0,0]},{"header":{"parameterUnit":"m.s-1","parameterCategory":1,"la1":30.2992,"la2":30.254,"lo1":-89.0895,"lo2":-89.0443,"dy":0.0025,"dx":0.0025,"nx":19,"ny":19,"refTime":"2026-03-08T21:00:00:Z","depth":0,"parameterNumber":3,"parameterNumberName":"V-component_of_WINDS"},"data":[0,0,0,2.4959,2.496,2.5051,2.5052,2.5146,2.5147,0,0,0,0,0,0,0,0,0,0,0,2.4916,2.4916,2.4959,2.496,2.5051,2.5052,2.5146,2.5147,0,0,0,0,0,0,0,0,0,0,0,2.4916,2.4916,2.4916,2.4961,2.5051,2.5052,2.5146,2.5086,0,0,0,0,0,0,0,0,0,0,2.5001,2.4946,2.4916,2.4916,2.4961,2.5051,2.5052,2.5083,2.5089,2.5095,0,2.5094,0,2.5122,2.5152,2.5152,0,0,0,2.4972,2.4941,2.4979,2.4916,2.4962,2.5051,2.5014,2.5087,2.5094,2.5103,2.5096,2.51,2.5123,2.5152,2.5153,2.5143,2.5142,0,0,2.4967,2.4924,2.4974,2.4983,2.4965,2.5011,2.5016,2.5092,2.5081,2.5096,2.5103,2.5125,2.5153,2.5153,2.5144,2.5143,0,0,0,2.4945,2.492,2.4958,2.4979,2.4996,2.5013,2.502,2.5078,2.5094,2.5104,2.5126,2.5153,2.5154,2.5144,2.5143,2.5072,0,0,0,2.4942,2.4907,2.4955,2.4929,2.4995,2.5038,2.5003,2.5088,2.5098,2.5126,2.5153,2.5155,2.5145,2.5144,2.5076,2.5046,0,0,0,2.4916,2.4904,2.4912,2.4927,2.4964,2.5038,2.5058,2.5091,2.5111,2.5152,2.5155,2.5146,2.5144,2.5079,2.5051,2.5032,0,0,0,2.4875,2.4846,2.491,2.4888,2.4963,2.4992,2.5058,2.5082,2.5108,2.5153,2.5145,2.5144,2.508,2.5054,2.5035,2.5009,2.4994,0,0,2.4815,2.4838,2.4828,2.4888,2.4894,2.4982,2.4979,2.5044,2.5088,2.5123,2.5123,2.5075,2.5051,2.5033,2.4922,2.4909,0,0,0,2.4795,2.4787,2.4799,2.4822,2.4871,2.4912,2.4982,2.5007,2.5039,2.5096,2.5064,2.5051,2.5042,2.5032,2.5021,2.5018,2.5137,2.5137,2.5137,2.4648,2.4706,2.4695,2.4765,2.4787,2.4861,2.4885,2.4932,2.4983,2.4974,2.4985,2.491,2.4897,2.4889,2.4884,2.4975,2.4975,2.4975,2.4975,2.4568,2.4567,2.4638,2.4653,2.4715,2.4729,2.4801,2.4837,2.4861,2.4906,2.4901,2.4946,2.4873,2.4873,2.497,2.4971,2.4971,2.4972,2.4972,2.4479,2.4489,2.452,2.4562,2.4588,2.466,2.468,2.4736,2.479,2.4785,2.4804,2.4805,2.4815,2.479,2.4789,2.4789,2.4789,2.4789,2.4789,2.4374,2.4412,2.4421,2.4473,2.4497,2.4536,2.4613,2.4639,2.4682,2.4722,2.4723,2.4776,2.4855,2.4874,2.4785,2.4786,2.4786,2.4786,2.4787,2.4272,2.4305,2.4319,2.4343,2.4411,2.4435,2.4507,2.4556,2.4586,2.4595,2.4651,2.4699,2.4726,2.4735,2.4752,2.4637,2.4637,2.4637,2.4637,2.4198,2.4218,2.4246,2.4282,2.4323,2.4391,2.4409,2.4469,2.4538,2.4561,2.4586,2.4612,2.4619,2.4643,2.4653,2.467,2.4536,2.4536,2.4536,2.414,2.4166,2.4169,2.4235,2.4293,2.4343,2.4362,2.4403,2.4487,2.4533,2.4581,2.4585,2.4628,2.4639,2.4685,2.4701,2.4732,0,0]}]]